Location: Bright Skies Observatory
(38.9689°N, 77.0681°W)
Time: 12:00:14
(UTC-04:00)

Daily predictions for brighter satellites

Satellite Brightness Start Highest point End
(mag) Time Altitude Azimuth Time Altitude Azimuth Time Altitude Azimuth
CZ-3C R/B 4.3 19:56:43 10° SW 20:46:19 30° S 20:55:31 10° SE
Cosmos 1340 Rocket 4.3 20:45:48 10° SSW 20:49:38 43° WNW 20:53:31 10° N
ATLAS 5 CENTAUR R/B 3.0 20:44:41 10° NW 20:50:41 61° WSW 20:57:02 10° SSE
Cosmos 2154 Rocket 4.5 20:45:30 10° SSE 20:51:11 39° E 20:56:53 10° NNE
H-2A R/B 2.7 20:48:48 10° SSE 20:52:30 86° WSW 20:56:15 10° NNW
H-2A R/B 3.3 20:53:12 10° ESE 20:56:42 25° ENE 21:00:09 10° NNE
Cosmos 2184 Rocket 4.0 20:51:05 10° S 20:57:14 90° ENE 21:03:28 10° N
YAOGAN 11 4.4 20:54:54 10° SSE 20:59:20 57° ENE 21:03:49 10° N
Cosmos 1782 2.8 20:56:11 10° N 21:00:13 68° E 21:04:15 10° SSE
Cosmos 1174 3.4 20:58:37 10° NNW 21:01:44 52° ENE 21:04:32 11° SE
Cosmos 1408 3.5 20:59:07 10° SSE 21:02:17 28° E 21:05:27 10° NNE
Cosmos 676 Rocket 4.2 20:57:12 10° N 21:02:20 56° ENE 21:07:28 10° SSE
Cosmos 1954 Rocket 4.4 21:00:32 10° N 21:05:33 46° ENE 21:10:34 10° SE
Okean 3 4.4 21:06:09 10° NNE 21:09:58 31° ENE 21:13:22 12° SE
Atlas Centaur 2 3.0 21:07:44 10° SW 21:10:09 17° SSW 21:12:28 10° SSE
COS B Rocket 3.9 21:08:05 10° NNE 21:11:39 33° E 21:14:38 11° SSE
Meteor 2-6 Rocket 4.3 21:06:40 10° N 21:12:38 88° E 21:18:25 10° S
CZ-4 DEB 2.8 21:10:35 10° S 21:13:45 83° WSW 21:16:56 10° NNW
Cosmos 1833 Rocket 4.4 21:11:49 10° N 21:15:40 18° NE 21:19:30 10° E
Cosmos 1844 Rocket 3.5 21:12:57 10° SW 21:18:30 57° WNW 21:24:04 10° NNE
Cosmos 1825 2.4 21:15:28 10° S 21:19:09 50° E 21:22:52 10° NNE
Cosmos 1939 Rocket 3.0 21:15:56 11° SSE 21:19:36 54° ENE 21:23:28 10° N
COSMOS 2406 4.4 21:14:37 10° NW 21:19:59 42° WSW 21:25:17 10° S
Cosmos 2278 Rocket 2.2 21:14:59 10° SSW 21:20:37 72° ESE 21:26:17 10° NNE
GPS 2-05 Rocket1 3.3 21:17:48 10° WSW 21:21:25 49° S 21:24:06 16° ESE
Cosmos 1674 Rocket 4.1 21:19:33 10° NNW 21:23:58 63° W 21:28:19 10° S
SL-27 R/B 4.2 21:21:04 10° NW 21:24:19 31° WSW 21:27:30 10° SSW
Cosmos 1844 4.2 21:21:04 10° SSW 21:26:48 67° WNW 21:32:36 10° NNE
ALOS 4.0 21:23:06 10° SSW 21:27:17 32° W 21:31:29 10° NNW
Okean 2 Rocket 3.4 21:27:43 10° SSE 21:31:57 46° E 21:36:10 10° NNE
Envisat 3.0 21:31:59 12° SSE 21:36:39 76° ENE 21:41:45 10° N
USA 186 4.5 21:35:13 10° SW 21:37:31 18° W 21:39:54 10° NW
SEDSat Delta rocket 4.1 21:34:23 10° SW 21:37:56 24° S 21:39:01 21° SE
PSLV R/B 4.1 21:38:39 26° ESE 21:39:25 30° ENE 21:42:04 10° N
Cosmos 1782 Rocket 3.5 21:35:18 10° S 21:39:44 72° E 21:44:13 10° NNE
Cosmos 2082 Rocket 3.0 21:36:30 10° N 21:41:44 36° ENE 21:44:56 20° ESE
Cosmos 614 Rocket 4.5 21:37:25 10° N 21:42:14 42° ENE 21:45:01 22° SE
CZ-4 SHROUD 4.1 21:41:47 27° ESE 21:42:36 32° ENE 21:45:25 10° N
Intercosmos 25 3.4 21:43:01 24° SSE 21:44:41 42° E 21:47:42 10° NNE
Nadezhda 3 Rocket 4.1 21:38:36 10° N 21:45:00 83° W 21:51:22 10° S
OAO 3 Rocket 3.7 21:40:48 10° SW 21:45:26 41° SSE 21:48:02 23° ESE
Cosmos 2218 Rocket 4.5 21:41:56 16° SSE 21:46:37 42° E 21:52:35 10° NNE
ERS-1 Rocket 3.6 21:43:38 10° S 21:48:34 55° W 21:53:31 10° NNW
Cosmos 1420 Rocket 3.9 21:43:49 10° SSW 21:49:04 85° ESE 21:54:19 10° NNE
APEX 3.4 21:45:52 10° SSW 21:49:41 79° ESE 21:54:43 10° NNE
COSMOS 2487 2.9 21:48:59 10° NNW 21:52:33 60° WSW 21:54:41 22° S
DNEPR-1 R/B 3.8 21:47:54 10° NNW 21:53:12 75° ENE 21:55:33 28° SE
Meteor 1-14 Rocket 4.4 21:48:54 16° SSE 21:53:20 52° E 21:58:43 10° NNE
Cosmos 1975 Rocket 2.9 21:51:23 10° N 21:55:44 89° E 21:58:29 22° S
Cosmos 1140 Rocket 3.4 21:51:43 10° NNW 21:56:53 90° ENE 22:00:07 24° SSE
Cosmos 2297 3.6 21:52:25 10° SSW 21:58:05 74° ESE 22:03:49 10° NNE
Terra 3.5 22:01:13 17° E 22:02:21 18° ENE 22:05:34 10° NNE
ISS -0.6 22:04:22 10° WNW 22:06:56 21° NNW 22:09:30 10° NNE
CZ-4B R/B 3.5 22:02:26 10° NNE 22:07:14 52° E 22:09:18 31° SSE
MetOp-B 4.1 22:04:32 25° SSE 22:07:48 85° ENE 22:13:11 10° NNW
Cosmos 1536 Rocket 4.3 22:04:27 10° N 22:08:38 37° ENE 22:09:30 33° ESE
H-2A R/B 3.2 22:11:12 25° E 22:12:48 30° ENE 22:17:21 10° N
NOSS 8 (F) 4.3 22:11:48 36° SSW 22:13:04 67° ESE 22:16:39 10° NE
Cosmos 1238 Rocket 4.1 22:10:57 10° NNW 22:14:09 35° W 22:17:07 14° SSW
SPOT 5 3.4 22:14:02 21° S 22:17:34 64° W 22:22:54 10° NNW
SL-8 Rocket 4.0 22:13:59 13° S 22:19:45 86° W 22:26:01 10° N
Abrixas 3.4 22:22:45 10° WSW 22:24:56 43° WSW 22:24:56 43° WSW
USA 245 3.0 22:25:48 67° S 22:26:15 86° W 22:30:26 10° NNW
Cosmos 2369 Rocket 4.1 22:29:38 13° ENE 22:29:38 13° ENE 22:30:50 10° ENE
SPOT 1/Viking Rocket 3.5 22:26:12 38° SSE 22:28:18 90° WSW 22:33:34 10° NNW
ARGOS 3.0 22:27:48 40° SSE 22:29:50 82° ENE 22:35:13 10° NNW
Cosmos 1242 Rocket 3.9 22:26:38 10° NNW 22:30:03 37° W 22:31:23 27° SW
Lacrosse 5 2.8 22:31:52 32° E 22:31:52 32° E 22:35:02 10° ENE
Timation 2 Rocket 4.3 22:25:20 10° NNW 22:31:10 57° WSW 22:34:07 29° S
H-2A R/B 3.9 22:29:41 13° SSW 22:32:37 26° W 22:36:10 10° NW
YAOGAN 6 3.4 22:33:24 38° SW 22:34:02 43° W 22:37:26 10° NNW
Cosmos 2151 Rocket 3.8 22:36:41 37° SSW 22:38:25 72° W 22:42:57 10° N
CZ-4C R/B 3.7 22:38:45 50° ENE 22:38:45 50° ENE 22:42:39 10° N
USA 229 DEB 3.7 22:40:30 10° NW 22:47:38 85° WSW 22:50:15 44° SSE
USA 229 3.7 22:40:36 10° NW 22:47:45 86° WSW 22:50:21 44° SSE
Cosmos 1300 Rocket 3.8 22:49:13 56° ENE 22:49:13 56° ENE 22:53:11 10° NNE
Meteor 1-20 Rocket 4.1 22:50:14 47° S 22:51:55 86° E 22:57:28 10° N
ASTEX 1 4.0 22:47:16 10° NNE 22:51:33 41° ENE 22:51:33 41° ENE
Timation 1 Rocket 4.4 22:48:55 18° SSW 22:53:26 81° WNW 22:59:29 10° NNE
Okean 1 Rocket 3.4 22:56:16 54° ENE 22:56:16 54° ENE 23:00:06 10° NNE
Cosmos 1833 Rocket 2.8 22:54:31 10° NNW 23:00:06 66° WSW 23:01:16 52° SSW
Cosmos 1331 Rocket 4.1 23:05:38 47° SW 23:07:04 71° WNW 23:12:14 10° NNE
Okean 1-7 Rocket 3.9 23:09:19 10° N 23:13:10 63° NNE 23:13:10 63° NNE
Okean 1 4.0 23:11:14 10° NNW 23:14:37 55° NW 23:14:37 55° NW
DMSP B5D2-2 4.0 23:14:55 10° N 23:20:09 80° WNW 23:20:37 72° SW
Landsat 7 4.5 23:23:53 46° WSW 23:24:01 46° W 23:28:36 10° NNW
Cosmos 2082 Rocket 3.4 23:20:46 10° NW 23:25:40 31° WSW 23:26:48 28° SW
ATLAS 2AS CENTAUR R/B 4.4 23:19:36 10° NNW 23:26:28 29° NE 23:30:50 18° E
Cosmos 1812 4.3 23:24:26 10° NNW 23:27:16 32° WNW 23:27:16 32° WNW
CARTOSAT-1 4.5 23:32:45 44° WNW 23:32:45 44° WNW 23:36:16 10° NNW
NOSS 3-1 (C) 4.0 23:27:28 10° NNW 23:35:08 79° NE 23:37:00 57° SE
Cosmos 1000 Rocket 4.4 23:30:53 10° N 23:37:10 84° W 23:37:43 75° SSW
Meteor 2-4 Rocket 4.0 23:32:16 10° N 23:37:12 55° ENE 23:37:12 55° ENE
Terra 2.6 23:40:06 45° W 23:40:06 45° W 23:44:19 10° NNW
Cosmos 2239 Rocket 4.4 23:40:41 75° SSW 23:41:15 86° W 23:47:35 10° N
USA 234 3.1 23:35:23 10° NE 23:41:58 87° SE 23:43:56 49° SW
BREEZE-M TANK 3.4 23:35:19 10° WNW 23:42:07 49° N 23:42:07 49° N
Cosmos 1486 Rocket 4.4 23:39:50 10° NNW 23:44:40 57° W 23:44:40 57° W
Cosmos 1354 Rocket 4.3 23:40:26 10° NNW 23:45:03 64° NNE 23:45:03 64° NNE
H-2A R/B 3.3 23:51:51 33° WSW 23:52:05 33° W 23:56:52 10° NNW
